Location: Bouchavesnes-Bergen
(49.9859°N, 2.9203°E)
Time: 05:10:47
(UTC+00:00)

USA 238 - Pass Details

Date: 09 March 2021
Orbit: 994 x 1218 km, 63.4° (Epoch: 01 April)

Event Time Altitude Azimuth Distance (km) Brightness Sun altitude
Rises 03:02:57 0° 316° (NW) 3,924 6.6 -30.3°
Reaches altitude 10° 03:05:34 10° 317° (NW) 2,995 5.9 -29.9°
Maximum altitude 03:12:47 81° 45° (NE) 1,180 3.8 -29.0°
Drops below altitude 10° 03:20:20 10° 134° (SE) 3,127 6.3 -27.9°
Sets 03:23:07 0° 135° (SE) 4,106 6.9 -27.5°
